Weather History for Wendover, UT

Change the Weather History Date:

Tuesday, October 8, 2013

  Actual Average Record
Temperature  
Mean Temperature 54 °F -  
Max Temperature 62 °F 65 °F 81 °F (1945)
Min Temperature 46 °F 43 °F 35 °F (1970)
Degree Days  
Heating Degree Days 11    
Growing Degree Days 4 (Base 50)    
Moisture  
Dew Point 26 °F    
Average Humidity 34    
Maximum Humidity 53    
Minimum Humidity 25    
Precipitation  
Precipitation 0.00 in - - ()
Sea Level Pressure  
Sea Level Pressure 29.86 in    
Wind  
Wind Speed 6 mph (East)    
Max Wind Speed 22 mph    
Max Gust Speed 26 mph    
Visibility 10 miles    
Events      
Averages and records for this station are not official NWS values.
T = Trace of Precipitation, MM = Missing Value Source: NWS Daily Summary

Daily Weather History Graph

Daily Weather History Graph

Search for Another Location

Airport:

Trip Planner

Search our weather history database for the weather conditions in past years. The results will help you decide how hot, cold, wet, or windy it might be!

Date:

Astronomy

Oct. 08, 2013 Rise Set
Actual Time 7:40 AM MDT 7:06 PM MDT
Civil Twilight 7:12 AM MDT 7:33 PM MDT
Nautical Twilight 6:41 AM MDT 8:05 PM MDT
Astronomical Twilight 6:09 AM MDT 8:36 PM MDT
Moon 11:39 AM MDT (10/8) 9:45 PM MDT (10/8)
Length of Visible Light 12h 20m
Length of Day
11h 26m
Waxing Crescent, 16% of the Moon is Illuminated
Oct 8
Waxing Crescent
Oct 11
First Quarter
Oct 18
Full
Oct 26
Last Quarter
Nov 3
New

Hourly Weather History & Observations

Time (MDT) Temp. Windchill Dew Point Humidity Pressure Visibility Wind Dir Wind Speed Gust Speed Precip Events Conditions
12:15 AM 48.2 °F - 30.2 °F 50% 29.89 in 10.0 mi East 3.5 mph - N/A   Clear
12:35 AM 48.2 °F - 30.2 °F 50% 29.88 in 10.0 mi NNE 3.5 mph - N/A   Clear
12:55 AM 48.2 °F - 30.2 °F 50% 29.88 in 10.0 mi Calm Calm - N/A   Clear
1:15 AM 48.2 °F - 30.2 °F 50% 29.89 in 10.0 mi Calm Calm - N/A   Clear
1:35 AM 48.2 °F - 28.4 °F 46% 29.88 in 10.0 mi Calm Calm - N/A   Clear
1:55 AM 48.2 °F - 28.4 °F 46% 29.88 in 10.0 mi Calm Calm - N/A   Clear
2:15 AM 48.2 °F - 30.2 °F 50% 29.88 in 10.0 mi West 3.5 mph - N/A   Clear
2:35 AM 48.2 °F - 28.4 °F 46% 29.87 in 10.0 mi West 4.6 mph - N/A   Clear
2:55 AM 46.4 °F 42.9 °F 28.4 °F 50% 29.87 in 10.0 mi WNW 6.9 mph - N/A   Clear
3:15 AM 48.2 °F - 28.4 °F 46% 29.87 in 10.0 mi Calm Calm - N/A   Clear
3:35 AM 46.4 °F - 28.4 °F 50% 29.86 in 10.0 mi Calm Calm - N/A   Clear
3:55 AM 46.4 °F - 30.2 °F 53% 29.86 in 10.0 mi Calm Calm - N/A   Clear
4:15 AM 48.2 °F - 26.6 °F 43% 29.86 in 10.0 mi West 4.6 mph - N/A   Clear
4:35 AM 48.2 °F - 28.4 °F 46% 29.86 in 10.0 mi East 6.9 mph - N/A   Clear
4:55 AM 51.8 °F - 23.0 °F 33% 29.86 in 10.0 mi North 9.2 mph - N/A   Clear
5:15 AM 50.0 °F - 26.6 °F 40% 29.87 in 10.0 mi WNW 5.8 mph - N/A   Clear
5:35 AM 51.8 °F - 21.2 °F 30% 29.87 in 10.0 mi South 6.9 mph - N/A   Clear
5:55 AM 51.8 °F - 21.2 °F 30% 29.87 in 10.0 mi Calm Calm - N/A   Clear
6:15 AM 48.2 °F - 24.8 °F 40% 29.87 in 10.0 mi ESE 3.5 mph - N/A   Clear
6:35 AM 48.2 °F - 24.8 °F 40% 29.87 in 10.0 mi WSW 4.6 mph - N/A   Clear
6:55 AM 48.2 °F - 24.8 °F 40% 29.87 in 10.0 mi Calm Calm - N/A   Clear
7:15 AM 46.4 °F - 24.8 °F 43% 29.87 in 10.0 mi Calm Calm - N/A   Clear
7:35 AM 48.2 °F - 24.8 °F 40% 29.87 in 10.0 mi SSE 6.9 mph - N/A   Clear
7:55 AM 50.0 °F - 24.8 °F 37% 29.87 in 10.0 mi SSW 5.8 mph - N/A   Clear
8:15 AM 51.8 °F - 24.8 °F 35% 29.88 in 10.0 mi SW 3.5 mph - N/A   Clear
8:35 AM 51.8 °F - 24.8 °F 35% 29.89 in 10.0 mi NE 6.9 mph - N/A   Clear
8:55 AM 51.8 °F - 24.8 °F 35% 29.89 in 10.0 mi North 4.6 mph - N/A   Clear
9:15 AM 53.6 °F - 24.8 °F 33% 29.90 in 10.0 mi Calm Calm - N/A   Clear
9:35 AM 55.4 °F - 24.8 °F 31% 29.90 in 10.0 mi SSW 4.6 mph - N/A   Clear
9:55 AM 57.2 °F - 23.0 °F 27% 29.91 in 10.0 mi SSE 4.6 mph - N/A   Clear
10:15 AM 57.2 °F - 23.0 °F 27% 29.91 in 10.0 mi Calm Calm - N/A   Clear
10:35 AM 57.2 °F - 24.8 °F 29% 29.91 in 10.0 mi NNW 8.1 mph - N/A   Clear
10:55 AM 57.2 °F - 23.0 °F 27% 29.91 in 10.0 mi Calm Calm - N/A   Clear
11:15 AM 57.2 °F - 21.2 °F 25% 29.91 in 10.0 mi SE 10.4 mph - N/A   Clear
11:35 AM 59.0 °F - 24.8 °F 27% 29.91 in 10.0 mi ESE 6.9 mph - N/A   Clear
11:55 AM 59.0 °F - 24.8 °F 27% 29.91 in 10.0 mi SE 8.1 mph - N/A   Clear
12:15 PM 59.0 °F - 26.6 °F 29% 29.91 in 10.0 mi SSE 11.5 mph - N/A   Clear
12:35 PM 59.0 °F - 24.8 °F 27% 29.91 in 10.0 mi South 4.6 mph - N/A   Clear
12:55 PM 60.8 °F - 26.6 °F 27% 29.90 in 10.0 mi Calm Calm - N/A   Clear
1:15 PM 60.8 °F - 26.6 °F 27% 29.89 in 10.0 mi SE 9.2 mph - N/A   Clear
1:35 PM 60.8 °F - 26.6 °F 27% 29.88 in 10.0 mi SE 9.2 mph - N/A   Clear
1:55 PM 60.8 °F - 26.6 °F 27% 29.88 in 10.0 mi SE 8.1 mph - N/A   Clear
2:15 PM 60.8 °F - 26.6 °F 27% 29.87 in 10.0 mi SE 10.4 mph - N/A   Clear
2:35 PM 60.8 °F - 26.6 °F 27% 29.86 in 10.0 mi SE 10.4 mph - N/A   Clear
2:55 PM 62.6 °F - 26.6 °F 26% 29.85 in 10.0 mi SE 11.5 mph - N/A   Clear
3:15 PM 62.6 °F - 26.6 °F 26% 29.85 in 10.0 mi SE 11.5 mph - N/A   Clear
3:35 PM 62.6 °F - 26.6 °F 26% 29.85 in 10.0 mi ESE 11.5 mph - N/A   Clear
3:55 PM 62.6 °F - 26.6 °F 26% 29.84 in 10.0 mi ESE 13.8 mph - N/A   Clear
4:15 PM 62.6 °F - 26.6 °F 26% 29.83 in 10.0 mi ESE 12.7 mph - N/A   Clear
4:35 PM 62.6 °F - 26.6 °F 26% 29.83 in 10.0 mi ESE 13.8 mph - N/A   Clear
4:55 PM 62.6 °F - 26.6 °F 26% 29.83 in 10.0 mi SE 10.4 mph - N/A   Clear
5:15 PM 62.6 °F - 26.6 °F 26% 29.82 in 10.0 mi East 9.2 mph - N/A   Clear
5:55 PM 62.6 °F - 26.6 °F 26% 29.82 in 10.0 mi East 10.4 mph - N/A   Clear
6:15 PM 60.8 °F - 26.6 °F 27% 29.82 in 10.0 mi East 11.5 mph - N/A   Clear
6:35 PM 60.8 °F - 24.8 °F 25% 29.82 in 10.0 mi East 11.5 mph - N/A   Clear
6:55 PM 57.2 °F - 26.6 °F 31% 29.82 in 10.0 mi ENE 10.4 mph - N/A   Clear
7:35 PM 55.4 °F - 26.6 °F 33% 29.82 in 10.0 mi NNE 6.9 mph - N/A   Clear
7:55 PM 55.4 °F - 26.6 °F 33% 29.82 in 10.0 mi ENE 4.6 mph - N/A   Clear
8:15 PM 53.6 °F - 26.6 °F 35% 29.82 in 10.0 mi NNE 4.6 mph - N/A   Clear
8:35 PM 55.4 °F - 24.8 °F 31% 29.82 in 10.0 mi NNE 13.8 mph - N/A   Clear
8:55 PM 55.4 °F - 23.0 °F 29% 29.82 in 10.0 mi North 19.6 mph 26.5 mph N/A   Clear
9:15 PM 53.6 °F - 23.0 °F 30% 29.82 in 10.0 mi North 21.9 mph 26.5 mph N/A   Clear
9:35 PM 53.6 °F - 23.0 °F 30% 29.82 in 10.0 mi NNE 17.3 mph - N/A   Clear
9:55 PM 53.6 °F - 23.0 °F 30% 29.81 in 10.0 mi North 16.1 mph 20.7 mph N/A   Clear
10:15 PM 53.6 °F - 23.0 °F 30% 29.81 in 10.0 mi NNE 19.6 mph 26.5 mph N/A   Clear
10:35 PM 53.6 °F - 23.0 °F 30% 29.81 in 10.0 mi North 17.3 mph 23.0 mph N/A   Clear
10:55 PM 51.8 °F - 23.0 °F 33% 29.81 in 10.0 mi North 21.9 mph 26.5 mph N/A   Clear
11:15 PM 51.8 °F - 23.0 °F 33% 29.81 in 10.0 mi North 19.6 mph - N/A   Clear
11:35 PM 51.8 °F - 23.0 °F 33% 29.81 in 10.0 mi North 16.1 mph 21.9 mph N/A   Clear
11:55 PM 51.8 °F - 23.0 °F 33% 29.82 in 10.0 mi NNW 3.5 mph - N/A   Clear